Regional Weather Roundup
Issued by NWS Upton, NY

Current Version | Previous Version | Text Only | Print | Product List | Glossary On
Versions: 1 2 3 4 5 6 7 8 9 10 11 12 13 14 15 16 17 18 19 20 21 22 23 24 25 26 27 28 29 30 31 32 33 34 35 36 37 38 39 40 41 42 43 44 45 46 47 48 49 50
000
ASUS41 KOKX 241508
RWROKX

REGIONAL WEATHER ROUNDUP
NATIONAL WEATHER SERVICE NEW YORK NY
1100 AM EDT SUN MAY 24 2015

NOTE: "FAIR" INDICATES FEW OR NO CLOUDS BELOW 12,000 FEET WITH NO
SIGNIFICANT WEATHER AND/OR OBSTRUCTIONS TO VISIBILITY.

NYZ071-072-176-178-NJZ106-104-241600-
NEW YORK CITY METRO AREA


CITY           SKY/WX    TMP DP  RH WIND       PRES   REMARKS
CENTRAL PARK   SUNNY     72  44  36 SW5       30.37F
LAGUARDIA APRT PTSUNNY   73  42  32 SW10      30.34F
KENNEDY INTL   MOSUNNY   71  47  42 SW13      30.36F
NEWARK/LIBERTY PTSUNNY   74  44  34 SW16      30.34F
BRNX BOT. GARD   N/A     72  41  33 NW5       30.34F
TETERBORO      SUNNY     74  41  30 SW12G17   30.32F
$$

NYZ177-179-078>081-241600-
LONG ISLAND NEW YORK

CITY           SKY/WX    TMP DP  RH WIND       PRES   REMARKS
FARMINGDALE    SUNNY     73  48  41 SW12      30.35F
ISLIP          PTSUNNY   69  49  48 S15       30.33F
SHIRLEY        SUNNY     67  50  54 SW12      30.35F
WESTHAMPTON    SUNNY     65  51  60 SW13      30.36S
MONTAUK POINT    N/A     63  52  67 S9        30.34F
$$

NYZ052-065-067-241600-
HUDSON VALLEY

CITY           SKY/WX    TMP DP  RH WIND       PRES   REMARKS
WHITE PLAINS   SUNNY     70  41  34 SW6       30.33F
NEWBURGH       NOT AVBL
MONTGOMERY     SUNNY     73  44  35 SW8G20    30.31F
POUGHKEEPSIE   SUNNY     72  39  30 SW8       30.30F
ALBANY         MOSUNNY   71  41  33 SW6       30.27F
$$

NJZ001-105-106-008-010-013-015-019>022-104-241600-
NEW JERSEY

CITY           SKY/WX    TMP DP  RH WIND       PRES   REMARKS
NEWARK/LIBERTY PTSUNNY   74  44  34 SW16      30.34F
TETERBORO      SUNNY     74  41  30 SW12G17   30.32F
CALDWELL       SUNNY     73  40  30 SW6G17    30.34F
MORRISTOWN     MOSUNNY   75  46  35 MISG      30.34F
SOMERVILLE     SUNNY     73  48  41 MISG      30.33F
SUSSEX         SUNNY     72  43  35 S8        30.33F
ANDOVER          N/A     71  44  37 VRB6      30.34F
TRENTON        SUNNY     72  49  44 SW8       30.36F
MILLVILLE      SUNNY     70  54  56 SW10      30.39F
ATLANTIC CITY  SUNNY     72  48  42 SW12      30.38F
WRIGHTSTOWN    SUNNY     73  54  51 SW13      30.34F
TOMS RIVER     SUNNY    N/A N/A N/A W14       30.36F
BELMAR         SUNNY     72  50  46 W14       30.36F
$$

PAZ047>061-062-071-241600-
EASTERN PENNSYLVANIA

CITY           SKY/WX    TMP DP  RH WIND       PRES   REMARKS
PHILADELPHIA   MOSUNNY   71  53  52 SW12      30.37F
ALLENTOWN      SUNNY     73  46  38 SW7       30.35F
SCRANTON       SUNNY     71  38  29 SW12      30.34F
$$

CTZ002-004>006-009-010-012-RIZ004-006-007-MAZ004-011-015-241600-
SOUTHERN NEW ENGLAND
 IN CT

CITY           SKY/WX    TMP DP  RH WIND       PRES   REMARKS
BRADLEY INTL   MOSUNNY   72  41  32 S13       30.27F
HARTFORD       SUNNY     72  39  30 SW12G21   30.29F
DANBURY        SUNNY     70  40  33 SW12      30.33F
WTRBRY/OXFORD  SUNNY     70  43  37 W9        30.33F
BRIDGEPORT     SUNNY     66  47  50 SW14      30.33F
MERIDEN        SUNNY     74  36  25 W8        30.30F
NEW HAVEN      MOSUNNY   64  45  49 SW8       30.33F
CHESTER        FAIR      70  37  30 W7        30.33F
GROTON         SUNNY     62  47  57 SW13      30.32F
WILLIMANTIC    SUNNY     74  32  21 W8        30.29F

 IN RI

CITY           SKY/WX    TMP DP  RH WIND       PRES   REMARKS
PROVIDENCE     MOSUNNY   74  34  23 W10G21    30.29F
BLOCK ISLAND   SUNNY     59  48  67 W22       30.33F
WESTERLY       SUNNY     63  43  48 SW15G22   30.32F

 IN MA

CITY           SKY/WX    TMP DP  RH WIND       PRES   REMARKS
BOSTON         SUNNY     76  35  22 W20       30.23F
WORCESTER      SUNNY     69  33  26 W16G24    30.27F
WESTFIELD      SUNNY     72  42  34 S5        30.27F
PROVINCETOWN   SUNNY     66  48  52 SW13      30.26S
NANTUCKET      SUNNY     62  52  69 SW22      30.32F
$$

ANZ330-335-338-340-345-350-353-355-241600-
COASTAL MARINE OBSERVATIONS


STATION/POSITION TIME  SKY/WX   TEMP    WIND        PRES    VSBY  WAVE
                                AIR SEA DIR/SP/G                  HT/PER
                 (UTC)          (F)     (DEG/KT/KT) (MB)    (MI)  (FT/S)
NY HARB ENTRANCE 1450            57 55  200/ 12/ 14 1027.8          2/ 4
4S FIRE IS       1403               54                N/A           3/ 5
20S FIRE ISLAND  1450            56 55  220/ 12/ 14 1028.8          2/ 4
GREAT SOUTH BAY  1400            58 62  260/ 14/ 16   N/A
23SW MTP         1450            55 53  240/ 16/ 19 1027.7          3/ 5
HUDSON CANYON    NOT AVBL
KINGS POINT      1400            63 58  290/  7/  9 1027.4
CENTRAL LI SOUND 1430            57 52  260/ 12/ 16   N/A
EASTERN LI SOUND 1400            55     230/  8/ 12   N/A
ROBBINS REEF     1400            66     260/ 16/ 18 1026.8
$$


>>>>>>>>>>>>>>>>>>>>>>>>>>>> KEY <<<<<<<<<<<<<<<<<<<<<<<<<<<
>                                                          <
>     SKY/WX - SKY CONDITION/PRESENT WEATHER               <
>     TMP    - TEMPERATURE IN FAHRENHEIT                   <
>     DP     - DEWPOINT IN FAHRENHEIT                      <
>     RH     - RELATIVE HUMIDITY IN PERCENT                <
>     WIND   - DIRECTION AND SPEED IN MPH                  <
>     PRES   - MEAN SEA LEVEL PRESSURE IN INCHES OF HG     <
>     WCI    - WIND CHILL INDEX                            <
>     VSB    - VISIBILITY IN MILES                         <
>     HX     - HEAT INDEX                                  <
>     TC     - TEMPERATURE IN CELSIUS                      <
>     VRB    - VARIABLE WIND DIRECTION                     <
>                                                          <
>>>>>>>>>>>>>>>>>>>>>>>>>>>> KEY <<<<<<<<<<<<<<<<<<<<<<<<<<<





USA.gov is the U.S. government's official web portal to all federal, state and local government web resources and services.